Погода в Ломже

Польша     53°10′23″N   22°04′06″E
темп.,
°C
ветер,
м/с
пор.,
м/с
влажн.,
%
обл.,
%
осадки,
мм/ч
давл.,
гПа
погр.,
м
22 мая, вс
вс2223:00+9зсз5128594 0.0 1009729
02:00+9зсз7138485 0.1 10081049
05:00+9зсз71381100 0.0 1008955
08:00+8зсз61192100 0.3 1008978
11:00+9зсз71083100 0.1 1009983
14:00+10зсз6984100 0.1 1010837
17:00+9сз5993100 0.6 1010607
20:00+9сз4898100 1.2 1010435
23 мая, пн
пн2323:00+9с51096100 0.4 1012403
02:00+8ссз4992100 0.4 1013238
05:00+6ссз389499 0.0 1013175
08:00+11с34795 0.0 1014352
11:00+16св33579 0.1 10141234
14:00+17св224788 0.3 10132019
17:00+14с3472100 0.1 1012110
20:00+13в2267100 0.1 101225
24 мая, вт
вт2423:00+13юв356699 0.0 1013103
02:00+9юв49716 0.0 1013170
05:00+7юв497528 0.0 1013149
08:00+12юв6961100 0.0 1013380
11:00+16юв6853100 0.0 1012984
14:00+18ююв6852100 0.0 10121393
17:00+18ююв5763100 0.0 10111370
20:00+15юв487882 0.0 1012185
25 мая, ср
ср2523:00+14ююв3974100 0.0 1013225
02:00+14ююв3972100 0.0 1013248
05:00+13ююв2376100 0.0 101371
08:00+14ю3584100 0.3 1013213
11:00+15ю3589100 2.3 1013287
14:00+14юв2593100 2.9 1012228
17:00+17ююв3580100 0.1 1010465
20:00+12сз71396100 13.0 1011625
26 мая, чт
чт2623:00+10з489715 0.3 1013265
02:00+8зюз489831 0.3 1014200
05:00+8зюз4109828 0.0 1013252
08:00+13зюз6138315 0.4 1013716
11:00+16з9146468 1.1 10131813
14:00+17з913706 2.4 10131607
17:00+17зсз812645 0.7 10131705
20:00+13сз511714 0.7 1015346